Airfield :
LOGIN :

Register | Disclaimer

   EN    FR    IT 

 










Legend :    VFR   Marginal VFR   IFR   Intensive IFR   Very Intensive IFR
Visi :
Ceiling :
>= 8 km
>= 3000ft
5 to 8 km
1000 to 3000 ft
1500m to 5 km
500 to 1000 ft
800 to 1500m
200 to 500 ft
< 800m
< 200 ft
Symbols :   Thunderstorms  Fog  Heavy snow  Heavy precipitations  Wind > 20 kt
SIGMETs :     Misc.  Thunderstorms  Icing  Turbulence  Mountain Waves  Volcanic Ashes







- Airport Elevation : 120 ft
- IATA code : MME
- Download approach charts


EGNV - Durham Tees valley

CURRENT METAR :
  • 260920Z 36010KT 8000 FEW009 BKN016 11/09 Q1032

EXPIRED METARs :
  • 260850Z 02011KT 9000 FEW009 BKN015 12/10 Q1032
  • 260820Z 02009KT 7000 FEW009 BKN014 11/10 Q1031
  • 260750Z 01009KT 7000 VCSH SCT006 BKN010 11/10 Q1031
  • 260720Z 01011KT 6000 SCT006 BKN010 11/10 Q1031
  • 260650Z 01008KT 6000 SCT005 BKN009 11/10 Q1030

TAF TAF EGNV
Valid from the 26 at 09:00 until the 26 at 18:00 UTC


260802Z 2609/2618 03008KT 6000 BKN006
BECMG 2609/2612 9999 SCT025
ATIS : +44 9012 018 111
No reported NOTAMs for that airfield.



MET'MAP, your aeronautical weather chart ! - Copyright ORBIFLY December 2007 - Disclaimer

ORBIFLY MET'MAP TEAM :

Programming & Development : Alexandra Zaïnal
Concept & Development : Baudouin d'Aumeries
Co-Development & Prog : Marc-Olivier Méhu
Technical & hardware support : Manuel Goepfert

Contact : metmap@orbifly.com




SOURCES & CREDITS :

   NOAA